Regional Weather Roundup
Issued by NWS

Home | Current Version | Previous Version | Graphics & Text | Print | Product List | Glossary On
Versions: 1 2 3 4 5 6 7 8 9 10 11 12 13 14 15 16 17 18 19 20 21 22 23 24 25 26 27 28 29 30 31 32 33 34 35 36 37 38 39 40 41 42 43 44 45 46 47 48 49 50
000
ASUS44 KMEG 080010
RWRTN
TENNESSEE HOURLY STATE WEATHER ROUNDUP
NATIONAL WEATHER SERVICE MEMPHIS TN
600 PM CST SUN FEB 07 2016

TNZ002-004-019-021-049-052-054-088>092-080100-
WEST TENNESSEE

CITY           SKY/WX    TMP DP  RH WIND       PRES   REMARKS
MEMPHIS INTL   MOCLDY    53  31  42 SW7       30.01S
NWS MEMPHIS      N/A     53 N/A N/A MISG        N/A
JACKSON        PTCLDY    51  28  41 SW12G18   29.98F
DYERSBURG      CLEAR     52  30  43 SW8G17    29.98F
UNION CITY     CLEAR     50  34  53 SW9       29.94F
PARIS          CLEAR     46  27  46 SW9       29.95F
$$

TNZ008-025-027-028-033-062-065-066-080100-
NORTH MIDDLE TENNESSEE

CITY           SKY/WX    TMP DP  RH WIND       PRES   REMARKS
NASHVILLE      MOCLDY    52  15  23 SW3       29.96F
CLARKSVILLE    MOCLDY    52  23  32 W8        29.94S
SMYRNA         CLEAR     48  22  36 S5        29.98S
COOKEVILLE     CLEAR     39  30  70 SW3       29.95F
CROSSVILLE     CLEAR     44  19  36 CALM      29.96F
$$

TNZ061-075-076-078-094-096-097-080100-
SOUTH MIDDLE TENNESSEE

CITY           SKY/WX    TMP DP  RH WIND       PRES   REMARKS
FAYETTEVILLE   CLEAR     46  21  36 SW5       29.99S
TULLAHOMA      CLEAR     45  16  31 SW6       29.99S
WINCHESTER     CLEAR     46  23  39 CALM      30.00S
MCMINNVILLE    CLEAR     45  23  42 SW3       29.98S
COLUMBIA       CLEAR     46  25  42 SW6       29.96F
SHELBYVILLE    CLEAR     48  23  37 S5        29.99S
$$

TNZ017-018-042-046-047-080100-
NORTHEAST TENNESSEE

CITY           SKY/WX    TMP DP  RH WIND       PRES   REMARKS
TRI CITIES     PTCLDY    41  24  51 SW7       29.94S
$$

TNZ012-013-036-069-073-074-080100-
CENTRAL EAST TENNESSEE

CITY           SKY/WX    TMP DP  RH WIND       PRES   REMARKS
KNOXVILLE      CLEAR     44  24  45 S7        29.96F
OAK RIDGE      CLEAR     46  23  40 CALM      29.97F
GATLINBURG     CLEAR     43  21  42 CALM      29.96F
MORRISTOWN     PTCLDY    43  23  45 S3        29.95S
$$

TNZ083-085-099-080100-
SOUTHEAST TENNESSEE

CITY           SKY/WX    TMP DP  RH WIND       PRES   REMARKS
CHATTANOOGA    MOCLDY    51  20  29 SW6       29.99F
$$

SKY/WX REPORTED AS FAIR MEANS FEW OR NO CLOUDS BELOW
12 THOUSAND FEET.




USA.gov is the U.S. government's official web portal to all federal, state and local government web resources and services.